Weather History for New York JFK, NY

Change the Weather History Date:

Tuesday, December 13, 2011

  Actual Average Record
Temperature  
Mean Temperature 39 °F 38 °F  
Max Temperature 48 °F 45 °F 63 °F (1983)
Min Temperature 29 °F 32 °F 8 °F (1960)
Degree Days  
Heating Degree Days 26 27  
Month to date heating degree days 280 321  
Since 1 July heating degree days 947 1145  
Cooling Degree Days 0 0  
Month to date cooling degree days 0 0  
Year to date cooling degree days 1267 1005  
Moisture  
Dew Point 20 °F    
Average Humidity 45    
Maximum Humidity 63    
Minimum Humidity 26    
Precipitation  
Precipitation 0.00 in 0.11 in 1.42 in (1965)
Month to date precipitation 1.37 1.51  
Year to date precipitation 54.02 40.89  
Snow  
Snow 0.00 in 0.10 in 0.90 in (1966)
Month to date snowfall 0.0 1.3  
Since 1 July snowfall 1.5 1.5  
Snow Depth 0.00 in    
Sea Level Pressure  
Sea Level Pressure 30.37 in    
Wind  
Wind Speed 10 mph (NNW)    
Max Wind Speed 23 mph    
Max Gust Speed 28 mph    
Visibility 10 miles    
Events      
T = Trace of Precipitation, MM = Missing Value Source: NWS Daily Summary

Daily Weather History Graph

Daily Weather History Graph

Search for Another Location

Airport:

Trip Planner

Search our weather history database for the weather conditions in past years. The results will help you decide how hot, cold, wet, or windy it might be!

Date:

Astronomy

Dec. 13, 2011 Rise Set
Actual Time 7:10 AM EST 4:28 PM EST
Civil Twilight 6:39 AM EST 4:59 PM EST
Nautical Twilight 6:04 AM EST 5:33 PM EST
Astronomical Twilight 5:31 AM EST 6:06 PM EST
Moon 7:40 PM EST (12/13) 9:18 AM EST (12/13)
Length of Visible Light 10h 19m
Length of Day
9h 18m
Waning Gibbous, 90% of the Moon is Illuminated
Dec 13
Waning Gibbous
Dec 17
Last Quarter
Dec 24
New
Jan 1
First Quarter
Jan 9
Full

Hourly Weather History & Observations

Time (EST) Temp. Windchill Dew Point Humidity Pressure Visibility Wind Dir Wind Speed Gust Speed Precip Events Conditions
12:51 AM 35.1 °F 28.6 °F 21.0 °F 57% 30.44 in 10.0 mi West 8.1 mph - N/A   Mostly Cloudy
1:51 AM 36.0 °F 29.6 °F 19.0 °F 50% 30.43 in 10.0 mi West 8.1 mph - N/A   Scattered Clouds
2:51 AM 34.0 °F 27.2 °F 19.0 °F 54% 30.42 in 10.0 mi WNW 8.1 mph - N/A   Partly Cloudy
3:51 AM 32.0 °F 25.6 °F 19.9 °F 61% 30.40 in 10.0 mi West 6.9 mph - N/A   Partly Cloudy
4:51 AM 32.0 °F 26.4 °F 19.9 °F 61% 30.38 in 10.0 mi West 5.8 mph - N/A   Clear
5:51 AM 32.0 °F 28.7 °F 19.9 °F 61% 30.39 in 10.0 mi NNW 3.5 mph - N/A   Clear
6:51 AM 30.9 °F 26.2 °F 19.0 °F 61% 30.39 in 10.0 mi North 4.6 mph - N/A   Partly Cloudy
7:51 AM 32.0 °F 26.4 °F 19.0 °F 59% 30.38 in 10.0 mi NNW 5.8 mph - N/A   Partly Cloudy
8:51 AM 37.0 °F 31.6 °F 19.9 °F 50% 30.40 in 10.0 mi NNW 6.9 mph - N/A   Scattered Clouds
9:51 AM 41.0 °F 35.8 °F 18.0 °F 40% 30.39 in 10.0 mi NNW 8.1 mph - N/A   Partly Cloudy
10:51 AM 44.1 °F 38.1 °F 18.0 °F 35% 30.38 in 10.0 mi NNW 11.5 mph - N/A   Scattered Clouds
11:51 AM 45.0 °F 39.7 °F 16.0 °F 31% 30.35 in 10.0 mi NNW 10.4 mph - N/A   Partly Cloudy
12:51 PM 46.9 °F - 15.1 °F 28% 30.33 in 10.0 mi NNW 16.1 mph - N/A   Partly Cloudy
1:51 PM 46.9 °F - 14.0 °F 27% 30.32 in 10.0 mi NNW 21.9 mph 27.6 mph N/A   Partly Cloudy
2:51 PM 46.9 °F - 14.0 °F 27% 30.32 in 10.0 mi NNW 15.0 mph - N/A   Partly Cloudy
3:51 PM 45.0 °F 37.9 °F 15.1 °F 30% 30.32 in 10.0 mi North 16.1 mph - N/A   Partly Cloudy
4:51 PM 43.0 °F 36.0 °F 18.0 °F 37% 30.33 in 10.0 mi North 13.8 mph - N/A   Partly Cloudy
5:51 PM 42.1 °F 36.1 °F 19.9 °F 41% 30.35 in 10.0 mi NNW 10.4 mph - N/A   Partly Cloudy
6:51 PM 42.1 °F 34.2 °F 21.9 °F 45% 30.36 in 10.0 mi North 16.1 mph - N/A   Partly Cloudy
7:51 PM 42.1 °F 35.2 °F 27.0 °F 55% 30.37 in 10.0 mi North 12.7 mph 23.0 mph N/A   Scattered Clouds
8:51 PM 41.0 °F 34.7 °F 28.0 °F 60% 30.38 in 10.0 mi North 10.4 mph - N/A   Mostly Cloudy
9:51 PM 39.9 °F 35.1 °F 27.0 °F 60% 30.38 in 10.0 mi NNW 6.9 mph - N/A   Mostly Cloudy
10:51 PM 39.0 °F 35.7 °F 27.0 °F 62% 30.38 in 10.0 mi North 4.6 mph - N/A   Scattered Clouds
11:51 PM 39.9 °F 35.1 °F 28.9 °F 65% 30.37 in 10.0 mi North 6.9 mph - N/A   Partly Cloudy